Showing default

ASTROCAST-0105, 47517

Orbit data source: Space-Track

ASTROCAST-0105, 47517 is a payload satellite owned by Astrocast (CH) in SSO that was launched on Sun, 24 Jan 2021 UTC via an FALCON 9 launch vehicle from the Air Force Eastern Test Range (AFETR). Payload-class satellites include a variety of spacecraft equipped with specific instruments for various scientific and technological missions. These include communications satellites like Starlink; space stations such as the ISS; scientific satellites like the Hubble; Earth observation satellites from companies like Planet Labs, Umbra, and HawkEye 360; GPS; miniature CubeSats for education and research; and military/defense satellites.

Not visible in the next 10 days
Identifier
47517, 2021-006DH
Orbit
SSO
Country
Flag of UnknownUnknown / SWTZ
Related business
Manufacturer
Astrocast
Mission
Operational Commercial Communications
Bus & Motor
CUBESAT 3U, Unknown motor
Mass
5 kg wet, 5 kg dry
Launch date (UTC)
2021-01-24 (5 years ago)
Launch vehicle
FALCON 9
Launch site
Air Force Eastern Test Range (AFETR)
Object type
Payload
Rocket body
Debris
Shape & HBR
Box, Unknown HBR
Radar Cross Section
0.035 m², Small (<0.1 m²)

Expand to show TLE details & history
Last TLE update: 15 hours ago

TLE from 15 hours ago
0 ASTROCAST-0105
1 47517U 21006DH  25310.14769761  .00037779  00000-0  61057-3 0  9990
2 47517  97.2507   3.9726 0001913 145.7026 214.4352 15.52765540266052
Epoch: 2025-11-06T03:32Z
TLE epoch observation values (Epoch: 2025-11-06T03:32:41.073Z)
Latitude
0.00007°
Longitude
-94.80873°
Altitude
412.866 km
Speed
7.663 km/s
True Right ascension
00h 15m 53s
True Declination
0° 00' 00"
Sunlit
Object was in full shadow at epoch
Visualization orbit readout
Latitude
Unknown
Longitude
Unknown
Altitude
Unknown
Speed
Unknown
Apparent Right ascension
Unknown
Apparent Declination
Unknown
Sunlit
N/A
Visualization observer readout
Local Sidereal Time
14:23:37
Azimuth
Unknown
Elevation
Unknown
Doppler factor
Unknown
Orbital elements
Apogee altitude
406.869 km
Perigee altitude
404.274 km
Semi-major axis
6,783.708 km
Eccentricity
0.00019
Inclination
97.2507°
RAAN
3.9726°
Arg. of periapsis
145.7026°
True anomaly
214.42281°
Mean anomaly
214.4352°
Eccentric anomaly
214.429°
Mean motion
3.88457 °/min
Orbital period
92.67 mins
BSTAR
0.00061057
Loading maneuver chart data...
Computing Atmospheric mass density...

Documentation

Showing up to 5 results
|